Home   Weather   Carlisle   Past weeks
Flag for United Kingdom

Past Weather in Carlisle, England, United Kingdom — Yesterday and Last 2 Weeks

Now
36 °F

Chilly.


Feels Like: N/A
Forecast: 38 / 29 °F
Wind: N/A

Location: Carlisle

Current Time: Jan 22, 2019 at 2:17:44 am

Latest Report: Jan 22, 2019 at 1:00 am


Visibility: 7 mi

Pressure: 29.55 "Hg

Humidity: 93%

Dew Point: 35 °F

Location of CarlisleLocation

Past Weather in Carlisle — Graph

°F

Carlisle Temperature Yesterday

Maximum temperature yesterday: 41 °F (at 7:00 pm)
Minimum temperature yesterday: 24 °F (at 7:00 am)
Average temperature yesterday: 33 °F

High & Low Weather Summary for the Past Weeks

 TemperatureHumidityPressure
High52 °F (Jan 7, 10:00 am)99% (Jan 10, 1:50 pm)30.54 "Hg (Jan 10, 1:50 pm)
Low24 °F (Jan 21, 7:00 am)61% (Jan 18, 12:00 pm)29.41 "Hg (Jan 16, 6:00 am)
Average41 °F86%30.06 "Hg
* Reported Jan 7 1:00 am — Jan 22 1:00 am, Carlisle. Weather by CustomWeather, © 2019

Note: Actual official high and low records may vary slightly from our data, if they occured in-between our weather recording intervals... More about our weather records

Advertising

Carlisle Weather History for the Previous 24 Hours

Scroll right to see more
 ConditionsComfort  
Time TempWeatherWind HumidityBarometerVisibility
1:00 am
Tue, Jan 22
36 °FChilly.N/A93%29.55 "Hg7 mi
12:00 am38 °FChilly.N/A93%29.54 "Hg9 mi
11:00 pm
Mon, Jan 21
36 °FChilly.N/A93%29.53 "Hg5 mi
10:00 pm39 °FChilly.N/A90%29.56 "Hg3 mi
9:00 pm40 °FQuite cool.N/A87%29.59 "Hg6 mi
8:00 pm40 °FChilly.N/A88%29.63 "Hg16 mi
7:00 pm41 °FQuite cool.N/A83%29.69 "Hg8 mi
6:00 pm40 °FQuite cool.N/A82%29.74 "Hg25 mi
5:00 pm40 °FChilly.N/A85%29.80 "Hg19 mi
4:00 pm40 °FChilly.N/A85%29.86 "Hg19 mi
3:00 pm40 °FChilly.N/A85%29.90 "Hg4 mi
2:00 pm39 °FChilly.N/A86%29.95 "Hg8 mi
1:00 pm39 °FChilly.N/A83%30.00 "Hg19 mi
12:00 pm36 °FChilly.N/A92%30.05 "Hg16 mi
11:00 am33 °FChilly.N/A98%30.10 "Hg14 mi
10:00 am28 °FChilly.N/A98%30.13 "Hg6 mi
9:00 am27 °FChilly.N/A98%30.17 "Hg4 mi
8:00 am25 °FChilly.N/A97%30.19 "Hg4 mi
7:00 am24 °FCold.N/A98%30.21 "Hg3 mi
6:00 am25 °FCold.N/A97%30.22 "Hg1 mi
4:50 am25 °FChilly.N/A98%30.23 "Hg0 mi
3:50 am26 °FChilly.N/A98%30.24 "Hg0 mi
2:50 am26 °FChilly.N/A98%30.26 "Hg0 mi
2:00 am26 °FChilly.N/A96%30.27 "Hg2 mi
Weather by CustomWeather, © 2019

See weather overview